Powrót do katalogu

HULIANWANG DIGUI-112

AktywnyŁącznośćLEO
NORAD 66922·PAYLOAD·🇨🇳 China

Wystrzelony Dec 6, 2025 z Wenchang Space Launch Site

Loading…

Następne Przeloty (najbliższe 24 godziny)

TLE

ŚwieżeSource: Space-Track

Epoka: Sep 14, 2026, 04:55 UTC

1 66922U 25285H   26257.20512971 -.00000087  00000-0  78896-4 0  9994
2 66922  50.0077 186.5268 0000202 240.2644 119.8208 13.29328848 37904

Śledź HULIANWANG DIGUI-112 w czasie rzeczywistym z AllMySat

Download on the App Store